Etusivu
METAR-TAF:

METAR-TAF

Lentoasemat :

Town MET

Windhoek, Namibia

Leveyspiiri: 22-34S, Pituuspiiri: 017-06E, korkeus merenpinnasta: 1725 m

Tämänhetkinen sää

Tämä raportti tehtiin 58 minuuttia sitten, kello 06.00 UTC
Tuuli 4 kn idästä
Lämpötila 12°C
Kosteus 44%
Ilmanpaine 1028 hPa

METAR: FYWW 260600Z AUTO 10004KT //// // ////// 12/00 Q1028

Aika: 07:58 (06:58 UTC)


TAF: puuttuu

Säähavainnot ja -ennusteet yli 4000 lentoasemalta (METAR- ja TAF-raportit).

Käytössä olevat sääasemat on merkitty karttaan keltaisilla ja punaisilla pisteillä.

Aseta hiiri pisteen päälle nähdäksesi sääaseman nimen.

Klikkaa sitten nähdäksesi säähavainnot ja -ennusteet.

Kartan vaihtaminen: klikkaa mustalla rastilla varustettuja vihreitä pisteitä, niin voit zoomata sisään; viivalla varustettua vihreää pistettä, niin voit zoomata ulos tai vihreitä nuolia, niin pääset viereisille kartoille.


METAR-TAF: